Location: Newark
(29.9790°N, 31.1340°E)
Time: 08:17:11
(UTC+00:00)

Vanguard 2 Rocket - Visible Passes

Search period start: 22 January 2020 00:00
Search period end: 01 February 2020 00:00
Orbit: 554 x 3326 km, 32.9° (Epoch: 21 January)

Date Brightness Start Highest point End Pass type
(mag) Time Alt. Az. Time Alt. Az. Time Alt. Az.
22 Jan 8.7 01:55:20 19° ESE 01:55:20 19° ESE 01:57:31 10° E visible
22 Jan 6.9 04:01:10 11° W 04:05:49 82° NNW 04:13:56 10° ENE visible
23 Jan 6.4 03:05:16 52° SW 03:06:23 77° SSE 03:12:48 10° ENE visible
24 Jan 8.1 02:09:19 28° E 02:09:19 28° E 02:12:11 10° E visible
24 Jan 7.0 04:15:23 10° W 04:20:13 70° N 04:28:19 10° E visible
25 Jan 6.3 03:19:09 42° W 03:20:41 77° N 03:27:07 10° ENE visible
26 Jan 7.5 02:23:08 38° E 02:23:08 38° E 02:26:34 10° ENE visible
27 Jan 6.5 03:32:55 30° WNW 03:35:06 65° N 03:41:30 10° E visible
28 Jan 6.9 02:36:51 48° ENE 02:36:51 48° ENE 02:40:53 10° ENE visible
29 Jan 9.3 01:40:46 10° ENE 01:40:46 10° ENE 01:40:51 10° ENE visible
29 Jan 6.6 03:46:35 21° WNW 03:49:32 63° N 03:55:57 10° E visible
30 Jan 6.4 02:50:29 58° NNE 02:50:29 58° NNE 02:55:15 10° E visible
31 Jan 8.9 01:54:24 14° ENE 01:54:24 14° ENE 01:55:11 10° ENE visible
31 Jan 6.5 04:00:12 14° WNW 04:03:55 73° NNE 04:10:25 10° E visible
